Marfret Guyane — FNMV — position and weather

sailwx.info

Track history (hours):
 
Tides and Currents Weather Stations Pressure Air Temp Water Temp Dewpoint Dewpoint Depression Visibility Wind Speed Wind Dir Waves Ship Positions

Marfret Guyane

Last reported at 2014-Aug-29 18:26 UTC. Time now 2014-Sep-16 15:30 UTC.
Position N 17°57' W 063°03'.
Warning: this ship's position is 17 days out of date.

Length 170 m; draft 8 m.

Type: Ship (hazmat cat A). MMSI: 226324000.

Date/timePositionNaut miles runAvg speedWind from/ knotsBaromVisibWave heightAir tempDewpointWater temp
2014-Aug-29 18:26N 17°57' W 063°03'  
2014-Aug-24 21:29N 36°11' W 027°55'1718.4
2014-Aug-24 20:34N 36°20' W 027°37'2018.6
2014-Aug-24 19:30N 36°30' W 027°16'1818.9
2014-Aug-24 18:33N 36°40' W 026°57'1818.4
2014-Aug-24 17:33N 36°50' W 026°38'1918.5
2014-Aug-24 16:33N 36°60' W 026°19'1918.5
2014-Aug-24 15:33N 37°10' W 025°59'1918.8
2014-Aug-24 14:33N 37°20' W 025°39'1918.8
2014-Aug-24 13:33N 37°30' W 025°20'1818.4
2014-Aug-24 12:33N 37°40' W 024°60'1918.6
2014-Aug-24 11:33N 37°49' W 024°39'1818.2
2014-Aug-24 10:33N 38°00' W 024°21'1918.6
2014-Aug-24 09:33N 38°12' W 024°03'  
2014-Aug-21 14:16N 49°41' W 000°38'1419.5
2014-Aug-21 13:34N 49°35' W 000°18'1515.2
2014-Aug-21 12:34N 49°30' E 000°04'3 2.5
2014-Aug-21 11:34N 49°29' E 000°07'0 0.0
2014-Aug-21 10:34N 49°29' E 000°07'0 0.0
2014-Aug-21 09:34N 49°29' E 000°07'0 0.0
2014-Aug-21 08:34N 49°29' E 000°07'0 0.0
2014-Aug-21 07:34N 49°29' E 000°07'0 0.0
2014-Aug-21 06:28N 49°29' E 000°07'0 0.0
2014-Aug-21 05:34N 49°29' E 000°07'0 0.0
2014-Aug-21 04:34N 49°29' E 000°07'0 0.0
2014-Aug-21 03:31N 49°29' E 000°07'0 0.0
2014-Aug-21 02:28N 49°29' E 000°07'0 0.0
2014-Aug-21 01:31N 49°29' E 000°07'0 0.0
2014-Aug-21 00:31N 49°29' E 000°07'0 0.0
2014-Aug-20 23:31N 49°29' E 000°07'0 0.0
2014-Aug-20 22:31N 49°29' E 000°07'0 0.0
2014-Aug-20 21:31N 49°29' E 000°07'0 0.0
2014-Aug-20 20:31N 49°29' E 000°07'0 0.0
2014-Aug-20 19:31N 49°29' E 000°07'0 0.0
2014-Aug-20 18:31N 49°29' E 000°07'2 1.7
2014-Aug-20 17:28N 49°29' E 000°10'0 0.0
2014-Aug-20 16:28N 49°29' E 000°10'0 0.0
2014-Aug-20 15:31N 49°29' E 000°10'0 0.0
2014-Aug-20 14:31N 49°29' E 000°10'0 0.0
2014-Aug-20 13:31N 49°29' E 000°10'0 0.0
2014-Aug-20 12:31N 49°29' E 000°10'0 0.0
2014-Aug-20 11:31N 49°29' E 000°10'0 0.0
2014-Aug-20 10:25N 49°29' E 000°10'0 0.0
2014-Aug-20 09:31N 49°29' E 000°10'0 0.0
2014-Aug-20 08:31N 49°29' E 000°10'0 0.0
2014-Aug-20 07:31N 49°29' E 000°10'0 0.0
2014-Aug-20 06:28N 49°29' E 000°10'0 0.0
2014-Aug-20 05:31N 49°29' E 000°10'0 0.0
2014-Aug-20 04:31N 49°29' E 000°10'0 0.0
2014-Aug-20 03:31N 49°29' E 000°10'0 0.0
2014-Aug-20 02:31N 49°29' E 000°10'1 0.8
2014-Aug-20 01:33N 49°28' E 000°09'7 7.3
2014-Aug-20 00:33N 49°30' W 000°02'1 1.0
2014-Aug-19 23:33N 49°29' W 000°03'0 0.0
2014-Aug-19 22:30N 49°29' W 000°03'0 0.0
2014-Aug-19 21:27N 49°29' W 000°03'0 0.0
2014-Aug-19 20:30N 49°29' W 000°03'0 0.0
2014-Aug-19 19:33N 49°29' W 000°03'0 0.0
2014-Aug-19 18:34N 49°29' W 000°03'  
Track history (hours):
 
Tides and Currents Weather Stations Pressure Air Temp Water Temp Dewpoint Dewpoint Depression Visibility Wind Speed Wind Dir Waves Ship Positions

Marfret Guyane

Last reported at 2014-Aug-29 18:26 UTC. Time now 2014-Sep-16 15:30 UTC.
Position N 17°57' W 063°03'.
Warning: this ship's position is 17 days out of date.

Length 170 m; draft 8 m.

Type: Ship (hazmat cat A). MMSI: 226324000.

Date/timePositionNaut miles runAvg speedWind from/ knotsBaromVisibWave heightAir tempDewpointWater temp
2014-Aug-29 18:26N 17°57' W 063°03'  
2014-Aug-24 21:29N 36°11' W 027°55'1718.4
2014-Aug-24 20:34N 36°20' W 027°37'2018.6
2014-Aug-24 19:30N 36°30' W 027°16'1818.9
2014-Aug-24 18:33N 36°40' W 026°57'1818.4
2014-Aug-24 17:33N 36°50' W 026°38'1918.5
2014-Aug-24 16:33N 36°60' W 026°19'1918.5
2014-Aug-24 15:33N 37°10' W 025°59'1918.8
2014-Aug-24 14:33N 37°20' W 025°39'1918.8
2014-Aug-24 13:33N 37°30' W 025°20'1818.4
2014-Aug-24 12:33N 37°40' W 024°60'1918.6
2014-Aug-24 11:33N 37°49' W 024°39'1818.2
2014-Aug-24 10:33N 38°00' W 024°21'1918.6
2014-Aug-24 09:33N 38°12' W 024°03'  
2014-Aug-21 14:16N 49°41' W 000°38'1419.5
2014-Aug-21 13:34N 49°35' W 000°18'1515.2
2014-Aug-21 12:34N 49°30' E 000°04'3 2.5
2014-Aug-21 11:34N 49°29' E 000°07'0 0.0
2014-Aug-21 10:34N 49°29' E 000°07'0 0.0
2014-Aug-21 09:34N 49°29' E 000°07'0 0.0
2014-Aug-21 08:34N 49°29' E 000°07'0 0.0
2014-Aug-21 07:34N 49°29' E 000°07'0 0.0
2014-Aug-21 06:28N 49°29' E 000°07'0 0.0
2014-Aug-21 05:34N 49°29' E 000°07'0 0.0
2014-Aug-21 04:34N 49°29' E 000°07'0 0.0
2014-Aug-21 03:31N 49°29' E 000°07'0 0.0
2014-Aug-21 02:28N 49°29' E 000°07'0 0.0
2014-Aug-21 01:31N 49°29' E 000°07'0 0.0
2014-Aug-21 00:31N 49°29' E 000°07'0 0.0
2014-Aug-20 23:31N 49°29' E 000°07'0 0.0
2014-Aug-20 22:31N 49°29' E 000°07'0 0.0
2014-Aug-20 21:31N 49°29' E 000°07'0 0.0
2014-Aug-20 20:31N 49°29' E 000°07'0 0.0
2014-Aug-20 19:31N 49°29' E 000°07'0 0.0
2014-Aug-20 18:31N 49°29' E 000°07'2 1.7
2014-Aug-20 17:28N 49°29' E 000°10'0 0.0
2014-Aug-20 16:28N 49°29' E 000°10'0 0.0
2014-Aug-20 15:31N 49°29' E 000°10'0 0.0
2014-Aug-20 14:31N 49°29' E 000°10'0 0.0
2014-Aug-20 13:31N 49°29' E 000°10'0 0.0
2014-Aug-20 12:31N 49°29' E 000°10'0 0.0
2014-Aug-20 11:31N 49°29' E 000°10'0 0.0
2014-Aug-20 10:25N 49°29' E 000°10'0 0.0
2014-Aug-20 09:31N 49°29' E 000°10'0 0.0
2014-Aug-20 08:31N 49°29' E 000°10'0 0.0
2014-Aug-20 07:31N 49°29' E 000°10'0 0.0
2014-Aug-20 06:28N 49°29' E 000°10'0 0.0
2014-Aug-20 05:31N 49°29' E 000°10'0 0.0
2014-Aug-20 04:31N 49°29' E 000°10'0 0.0
2014-Aug-20 03:31N 49°29' E 000°10'0 0.0
2014-Aug-20 02:31N 49°29' E 000°10'1 0.8
2014-Aug-20 01:33N 49°28' E 000°09'7 7.3
2014-Aug-20 00:33N 49°30' W 000°02'1 1.0
2014-Aug-19 23:33N 49°29' W 000°03'0 0.0
2014-Aug-19 22:30N 49°29' W 000°03'0 0.0
2014-Aug-19 21:27N 49°29' W 000°03'0 0.0
2014-Aug-19 20:30N 49°29' W 000°03'0 0.0
2014-Aug-19 19:33N 49°29' W 000°03'0 0.0
2014-Aug-19 18:34N 49°29' W 000°03'  

Dump ship's entire track history